Regional Weather Roundup
Issued by NWS

Home | Current Version | Previous Version | Graphics & Text | Print | Product List | Glossary On
Versions: 1 2 3 4 5 6 7 8 9 10 11 12 13 14 15 16 17 18 19 20 21 22 23 24 25 26 27 28 29 30 31 32 33 34 35 36 37 38 39 40 41 42 43 44 45 46 47 48 49 50
000
ASUS43 KOAX 180710
RWRNE

WEATHER ROUNDUP FOR NEBRASKA
NATIONAL WEATHER SERVICE OMAHA NE
100 AM CST THU DEC 18 2014

NOTES: SATELLITE DATA IS BEING USED TO AUGMENT CLOUD COVER ABOVE
       12000 FEET.
       "FAIR" INDICATES FEW OR NO CLOUDS BELOW 12,000 FEET WITH NO
       SIGNIFICANT WEATHER AND/OR OBSTRUCTIONS TO VISIBILITY.

  * THESE STATIONS DO NOT REPORT WEATHER SUCH AS RAIN...SNOW OR FOG.

NEZ001>004-019>022-054>056-180800-
NEBRASKA PANHANDLE

CITY           SKY/WX    TMP DP  RH WIND       PRES   REMARKS
SCOTTSBLUFF    FOG       16  14  92 NE5       30.02S VSB 1/4 WCI   9
ALLIANCE       FOG       20  18  92 S8        30.00F VSB 1/4 WCI  10
CHADRON        FOG       19  16  88 SW6       30.02F VSB 1/4 WCI  11
KIMBALL        MOCLDY    27  22  81 NW6       29.95F WCI  20
SIDNEY         FOG       21  19  92 SW10      29.99F VSB 1/2 WCI  10
$$

NEZ057>060-069>072-079>082-180800-
SOUTHWEST NEBRASKA

CITY           SKY/WX    TMP DP  RH WIND       PRES   REMARKS
NORTH PLATTE   CLOUDY    23  22  96 S5        30.09F FOG     WCI  17
IMPERIAL       FOG       25  22  88 S5        30.07F VSB 3/4 WCI  19
LEXINGTON      LGT SNOW  25  23  93 SE3       30.13F
MCCOOK         LGT SNOW  25  23  92 CALM      30.12S VSB 1
OGALLALA       CLOUDY    24  24  99 SW5       30.06F FOG     WCI  18
$$

NEZ005>010-023>029-035>040-094-180800-
NORTH CENTRAL NEBRASKA

CITY           SKY/WX    TMP DP  RH WIND       PRES   REMARKS
VALENTINE      CLOUDY    24  21  88 S10       30.08F FOG     WCI  14
AINSWORTH      CLOUDY    22  21  97 S3        30.10F FOG
BROKEN BOW     CLOUDY    24  22  91 S6        30.12F FOG     WCI  17
O`NEILL        CLOUDY    21  19  94 CALM      30.17F
ORD            CLOUDY    23  19  85 SE6       30.15F WCI  16
THEDFORD       CLOUDY    23  22  95 SW9       30.08F FOG     WCI  13
$$

NEZ041-046>049-061>064-073>077-083>087-180800-
SOUTH CENTRAL NEBRASKA

CITY           SKY/WX    TMP DP  RH WIND       PRES   REMARKS
GRAND ISLAND   LGT SNOW  24  20  84 E3        30.19F FOG
AURORA         LGT SNOW  24  23  95 E5        30.18F WCI  18
HASTINGS       CLOUDY    25  19  78 E3        30.16F
HEBRON         LGT SNOW  26  22  87 E6        30.20F WCI  19
HOLDREGE       CLOUDY    24  21  86 SE3       30.13F
KEARNEY *      CLOUDY    25  19  80 SE6       30.15F WCI  18
YORK           FLURRIES  25 N/A N/A E6        30.20F WCI  18
$$

NEZ011>018-030>034-042>045-180800-
NORTHEAST NEBRASKA

CITY           SKY/WX    TMP DP  RH WIND       PRES   REMARKS
NORFOLK        CLOUDY    25  18  74 SE6       30.21F WCI  18
ALBION         CLOUDY    24  19  80 SE7       30.19F WCI  16
BLAIR          CLOUDY    28  22  78 E5        30.23S WCI  22
COLUMBUS *     CLOUDY    25  16  68 SE5       30.23F WCI  19
FREMONT        CLOUDY    28  21  75 CALM      30.24F
TEKAMAH        CLOUDY    27  20  75 E6        30.26F WCI  20
WAYNE          CLOUDY    25  20  82 E3        30.24S
$$

NEZ050>053-065>068-078-088>093-180800-
SOUTHEAST NEBRASKA

CITY           SKY/WX    TMP DP  RH WIND       PRES   REMARKS
LINCOLN        CLOUDY    27  19  72 E3        30.24F
OMAHA EPPLEY   CLOUDY    28  20  71 E6        30.26F WCI  22
BEATRICE       CLOUDY    27  22  80 CALM      30.22S
FALLS CITY     CLOUDY    29  22  75 E7        30.24F WCI  22
NEBRASKA CITY  CLOUDY    28  21  75 E3        30.23F
PLATTSMOUTH    CLOUDY    27  21  76 E5        30.23F WCI  22
$$

NEZ044-045-051>053-067-180800-
OMAHA AREA

CITY           SKY/WX    TMP DP  RH WIND       PRES   REMARKS
OMAHA EPPLEY   CLOUDY    28  20  71 E6        30.26F WCI  22
BLAIR          CLOUDY    28  22  78 E5        30.23S WCI  22
FREMONT        CLOUDY    28  21  75 CALM      30.24F
MILLARD        CLOUDY    29  20  69 SE3       30.24F
OFFUTT AFB     CLOUDY    28  21  75 E5        30.24F WCI  23
PLATTSMOUTH    CLOUDY    27  21  76 E5        30.23F WCI  22
WAHOO          CLOUDY    28  20  72 SE3       30.23F
$$


USA.gov is the U.S. government's official web portal to all federal, state and local government web resources and services.